Regional Weather Roundup
Issued by NWS Cleveland, OH

Home | Current Version | Previous Version | Graphics & Text | Print | Product List | Glossary On
Versions: 1 2 3 4 5 6 7 8 9 10 11 12 13 14 15 16 17 18 19 20 21 22 23 24 25 26 27 28 29 30 31 32 33 34 35 36 37 38 39 40 41 42 43 44 45 46 47 48 49 50
000
ASUS41 KCLE 210410
RWRCLE
OHIO REGIONAL WEATHER ROUNDUP
NATIONAL WEATHER SERVICE CLEVELAND, OH
1100 PM EST MON FEB 20 2017

NOTE: "FAIR" INDICATES FEW OR NO CLOUDS BELOW 12,000 FEET WITH NO
SIGNIFICANT WEATHER AND/OR OBSTRUCTIONS TO VISIBILITY.

OHZ001>008-015>018-024>027-034-035-043-044-210500-
   NORTHWEST OHIO

CITY           SKY/WX    TMP DP  RH WIND       PRES   REMARKS
DEFIANCE       PTCLDY    39  32  76 E7        30.10F
FINDLAY        CLOUDY    44  34  67 CALM      30.11S
TOLEDO EXPRESS CLOUDY    37  33  85 E5        30.12F
TOLEDO EXEC    CLOUDY    38  33  82 CALM      30.14F
LIMA           PTCLDY    48  39  71 SE7       30.09F
$$

OHZ009>014-019>023-028>033-038-089-210500-
   NORTHEAST OHIO

CITY           SKY/WX    TMP DP  RH WIND       PRES   REMARKS
CLE-HOPKINS    CLOUDY    45  32  60 CALM      30.16F
CLE-LAKEFRONT  PTCLDY    39  34  82 NE3       30.13F
CUY CO. ARPT   CLOUDY    48  34  57 SE9       30.14F
LORAIN-ELYRIA  CLOUDY    37  30  75 S3        30.14F
ASHTABULA      CLOUDY    38  31  76 SE3       30.16F
AKRON-CANTON   CLOUDY    50  28  42 SE6       30.14F
WOOSTER        CLOUDY    41  35  79 CALM      30.14F
MANSFIELD      CLOUDY    49  39  68 SE10      30.12F
YOUNGSTOWN     CLOUDY    45  30  55 SE9       30.17F
$$

OHZ042-051>053-060>062-070>072-077>081-210500-
  SOUTHWEST OHIO

CITY           SKY/WX    TMP DP  RH WIND       PRES   REMARKS
CINC-COVINGTON CLOUDY    55  40  56 SE9       30.07F
CINC-LUNKEN    CLOUDY    47  44  90 CALM      30.09F
HAMILTON       CLOUDY    51  42  71 E6        30.09F
DAYTON         CLOUDY    49  42  77 SE9       30.09F
WRIGHT-PAT AFB MOCLDY    49  44  83 CALM      30.09F
DAYTON GENERAL MOCLDY    55  38  52 SE8       30.08F
WILMINGTON     PTCLDY    49  40  71 SE6       30.09F
$$

OHZ036-037-039>041-045>050-054>059-063>069-073>076-082>088-210500-
  CENTRAL AND SOUTHEAST OHIO

CITY           SKY/WX    TMP DP  RH WIND       PRES   REMARKS
COLUMBUS       CLOUDY    53  39  59 SE6       30.11F
OSU AIRPORT    PTCLDY    50  41  71 SE7       30.11F
BOLTON FIELD   PTCLDY    48  42  79 SE5       30.13S
RICKENBACK AFB PTCLDY    48  43  81 CALM      30.11S
NEWARK         PTCLDY    41  38  89 CALM      30.12F
MARION         CLOUDY    51  37  58 SE10      30.11F
LANCASTER      PTCLDY    44  41  89 W3        30.12F
ZANESVILLE     PTCLDY    47  38  71 CALM      30.12F
NEW PHILLY     NOT AVBL
$$




USA.gov is the U.S. government's official web portal to all federal, state and local government web resources and services.